When you browse on this site, cookies collect data to enhance your experience and personalize the content and advertising you see.
Visit our Privacy Policy to learn more. By continuing to use the site, you agree to this use of cookies and data.
  • In Spain
  • List of Countries
  • For 7 days
  • Water Temperature
  • Satellite Maps
  • Weather Map
  • Weather Widgets
  • user-avatar
    Login

    Hourly Weather Viedma

    Today, 13 December, Thursday

    Time Temperature Precipitation Wind Pressure Humidity
    00:00 +18°C° 0 mm 7 mps 755 mmHg 53%
    01:00 +18°C° 0 mm 7 mps 755 mmHg 56%
    02:00 +18°C° 0 mm 7 mps 755 mmHg 58%
    03:00 +18°C° 0 mm 7 mps 754 mmHg 61%
    04:00 +17°C° 0 mm 6 mps 754 mmHg 64%
    05:00 +17°C° 0 mm 6 mps 754 mmHg 67%
    06:00 +20°C° 0 mm 6 mps 754 mmHg 58%
    07:00 +23°C° 0 mm 6 mps 753 mmHg 49%
    08:00 +26°C° 0 mm 6 mps 753 mmHg 40%
    09:00 +28°C° 0 mm 6 mps 753 mmHg 34%
    10:00 +29°C° 0 mm 6 mps 752 mmHg 28%
    11:00 +32°C° 0 mm 6 mps 752 mmHg 22%
    12:00 +33°C° 0 mm 7 mps 751 mmHg 23%
    13:00 +33°C° 0 mm 7 mps 751 mmHg 24%
    14:00 +33°C° 0 mm 7 mps 750 mmHg 25%
    15:00 +29°C° 4 mm 7 mps 749 mmHg 40%
    16:00 +26°C° 4 mm 6 mps 749 mmHg 54%
    17:00 +22°C° 4 mm 6 mps 749 mmHg 69%
    18:00 +21°C° 2.2 mm 6 mps 749 mmHg 72%
    19:00 +21°C° 2.2 mm 6 mps 749 mmHg 74%
    20:00 +20°C° 2.2 mm 6 mps 749 mmHg 77%
    21:00 +20°C° 0 mm 6 mps 749 mmHg 77%
    22:00 +20°C° 0 mm 6 mps 749 mmHg 78%
    23:00 +20°C° 0 mm 6 mps 749 mmHg 78%

    Tomorrow, 14 December, Friday

    Time Temperature Precipitation Wind Pressure Humidity
    00:00 +20°C° 0 mm 6 mps 749 mmHg 79%
    01:00 +20°C° 0 mm 6 mps 748 mmHg 80%
    02:00 +20°C° 0 mm 6 mps 748 mmHg 81%
    03:00 +18°C° 0 mm 7 mps 748 mmHg 74%
    04:00 +18°C° 0 mm 7 mps 748 mmHg 67%
    05:00 +18°C° 0 mm 7 mps 748 mmHg 60%
    06:00 +18°C° 0 mm 9 mps 749 mmHg 61%
    07:00 +19°C° 0 mm 10 mps 749 mmHg 62%
    08:00 +19°C° 0 mm 12 mps 749 mmHg 63%
    09:00 +19°C° 0.2 mm 12 mps 750 mmHg 62%
    10:00 +19°C° 0.2 mm 12 mps 751 mmHg 61%
    11:00 +18°C° 0.2 mm 12 mps 751 mmHg 60%
    12:00 +18°C° 0.5 mm 12 mps 752 mmHg 57%
    13:00 +18°C° 0.5 mm 12 mps 752 mmHg 53%
    14:00 +18°C° 0.5 mm 11 mps 753 mmHg 50%
    15:00 +19°C° 0.2 mm 10 mps 753 mmHg 45%
    16:00 +21°C° 0.2 mm 9 mps 753 mmHg 39%
    17:00 +22°C° 0.2 mm 8 mps 754 mmHg 34%
    18:00 +21°C° 0 mm 7 mps 754 mmHg 36%
    19:00 +20°C° 0 mm 6 mps 754 mmHg 38%
    20:00 +19°C° 0 mm 4 mps 755 mmHg 40%
    21:00 +18°C° 0 mm 3 mps 755 mmHg 47%
    22:00 +18°C° 0 mm 3 mps 756 mmHg 55%
    23:00 +17°C° 0 mm 2 mps 756 mmHg 62%

    Day after tomorrow, 15 December, Saturday

    Time Temperature Precipitation Wind Pressure Humidity
    00:00 +16°C° 0 mm 2 mps 756 mmHg 66%
    01:00 +16°C° 0 mm 1 mps 756 mmHg 71%
    02:00 +15°C° 0 mm 1 mps 756 mmHg 75%
    03:00 +15°C° 0 mm 1 mps 756 mmHg 71%
    04:00 +15°C° 0 mm 2 mps 756 mmHg 66%
    05:00 +16°C° 0 mm 3 mps 756 mmHg 62%
    06:00 +18°C° 0 mm 3 mps 757 mmHg 55%
    07:00 +19°C° 0 mm 4 mps 757 mmHg 48%
    08:00 +21°C° 0 mm 5 mps 757 mmHg 41%
    09:00 +22°C° 0 mm 5 mps 757 mmHg 37%
    10:00 +25°C° 0 mm 5 mps 757 mmHg 33%
    11:00 +26°C° 0 mm 5 mps 757 mmHg 29%
    12:00 +27°C° 0 mm 5 mps 756 mmHg 27%
    13:00 +28°C° 0 mm 5 mps 756 mmHg 25%
    14:00 +29°C° 0 mm 5 mps 755 mmHg 23%
    15:00 +29°C° 0 mm 4 mps 754 mmHg 22%
    16:00 +30°C° 0 mm 4 mps 754 mmHg 21%
    17:00 +30°C° 0 mm 3 mps 753 mmHg 20%
    18:00 +28°C° 0 mm 4 mps 753 mmHg 24%
    19:00 +27°C° 0 mm 5 mps 752 mmHg 28%
    20:00 +25°C° 0 mm 5 mps 752 mmHg 33%
    21:00 +24°C° 0 mm 6 mps 752 mmHg 33%
    22:00 +23°C° 0 mm 6 mps 751 mmHg 34%
    23:00 +23°C° 0 mm 7 mps 751 mmHg 35%

    16 December, Sunday

    Time Temperature Precipitation Wind Pressure Humidity
    00:00 +23°C° 0 mm 7 mps 750 mmHg 33%
    01:00 +23°C° 0 mm 7 mps 750 mmHg 31%
    02:00 +23°C° 0 mm 7 mps 749 mmHg 29%
    03:00 +23°C° 0 mm 8 mps 749 mmHg 29%
    04:00 +24°C° 0 mm 8 mps 749 mmHg 29%
    05:00 +24°C° 0 mm 9 mps 749 mmHg 29%
    06:00 +26°C° 0 mm 8 mps 750 mmHg 29%
    07:00 +28°C° 0 mm 8 mps 750 mmHg 28%
    08:00 +29°C° 0 mm 7 mps 750 mmHg 28%
    09:00 +29°C° 0 mm 7 mps 750 mmHg 28%
    10:00 +30°C° 0 mm 7 mps 750 mmHg 28%
    11:00 +32°C° 0 mm 6 mps 750 mmHg 28%
    12:00 +28°C° 0 mm 7 mps 751 mmHg 39%
    13:00 +24°C° 0 mm 8 mps 751 mmHg 49%
    14:00 +21°C° 0 mm 9 mps 752 mmHg 60%
    15:00 +21°C° 0 mm 9 mps 752 mmHg 61%
    16:00 +19°C° 0 mm 9 mps 753 mmHg 62%
    17:00 +20°C° 0 mm 8 mps 754 mmHg 63%
    18:00 +18°C° 0.1 mm 7 mps 755 mmHg 63%
    19:00 +17°C° 0.1 mm 7 mps 756 mmHg 62%
    20:00 +17°C° 0.1 mm 6 mps 757 mmHg 62%
    21:00 +16°C° 0 mm 5 mps 757 mmHg 59%
    22:00 +16°C° 0 mm 5 mps 758 mmHg 57%
    23:00 +16°C° 0 mm 5 mps 759 mmHg 54%

    17 December, Monday

    Time Temperature Precipitation Wind Pressure Humidity
    00:00 +17°C° 0 mm 4 mps 759 mmHg 57%
    01:00 +17°C° 0 mm 4 mps 759 mmHg 60%
    02:00 +16°C° 0 mm 3 mps 759 mmHg 62%
    03:00 +16°C° 0 mm 3 mps 760 mmHg 65%
    04:00 +14°C° 0 mm 3 mps 760 mmHg 68%
    05:00 +15°C° 0 mm 2 mps 761 mmHg 71%
    06:00 +16°C° 0 mm 3 mps 761 mmHg 63%
    07:00 +17°C° 0 mm 3 mps 762 mmHg 56%
    08:00 +19°C° 0 mm 3 mps 763 mmHg 49%
    09:00 +20°C° 0 mm 3 mps 763 mmHg 44%
    10:00 +21°C° 0 mm 3 mps 763 mmHg 39%
    11:00 +22°C° 0 mm 3 mps 763 mmHg 34%
    12:00 +22°C° 0 mm 4 mps 763 mmHg 33%
    13:00 +23°C° 0 mm 4 mps 763 mmHg 32%
    14:00 +25°C° 0 mm 4 mps 763 mmHg 31%
    15:00 +23°C° 0 mm 5 mps 762 mmHg 32%
    16:00 +23°C° 0 mm 5 mps 762 mmHg 34%
    17:00 +23°C° 0 mm 6 mps 762 mmHg 35%
    18:00 +21°C° 0 mm 6 mps 762 mmHg 39%
    19:00 +20°C° 0 mm 7 mps 762 mmHg 43%
    20:00 +18°C° 0 mm 8 mps 762 mmHg 47%
    21:00 +17°C° 0 mm 8 mps 762 mmHg 48%
    22:00 +17°C° 0 mm 8 mps 762 mmHg 50%
    23:00 +16°C° 0 mm 8 mps 762 mmHg 51%

    18 December, Tuesday

    Time Temperature Precipitation Wind Pressure Humidity
    00:00 +16°C° 0 mm 8 mps 762 mmHg 50%
    01:00 +16°C° 0 mm 8 mps 761 mmHg 49%
    02:00 +16°C° 0 mm 8 mps 761 mmHg 48%
    03:00 +16°C° 0 mm 8 mps 761 mmHg 46%
    04:00 +15°C° 0 mm 7 mps 761 mmHg 44%
    05:00 +15°C° 0 mm 7 mps 761 mmHg 42%
    06:00 +17°C° 0 mm 7 mps 761 mmHg 37%
    07:00 +20°C° 0 mm 7 mps 760 mmHg 32%
    08:00 +22°C° 0 mm 8 mps 760 mmHg 27%
    09:00 +24°C° 0 mm 8 mps 760 mmHg 24%
    10:00 +27°C° 0 mm 8 mps 760 mmHg 22%
    11:00 +29°C° 0 mm 8 mps 759 mmHg 19%
    12:00 +31°C° 0 mm 8 mps 759 mmHg 19%
    13:00 +32°C° 0 mm 8 mps 758 mmHg 18%
    14:00 +33°C° 0 mm 7 mps 757 mmHg 18%
    15:00 +33°C° 0 mm 8 mps 756 mmHg 18%
    16:00 +32°C° 0 mm 8 mps 756 mmHg 17%
    17:00 +32°C° 0 mm 8 mps 755 mmHg 17%
    18:00 +31°C° 0 mm 8 mps 754 mmHg 19%
    19:00 +28°C° 0 mm 8 mps 754 mmHg 21%
    20:00 +27°C° 0 mm 8 mps 754 mmHg 24%
    21:00 +26°C° 0 mm 9 mps 753 mmHg 27%
    22:00 +24°C° 0 mm 9 mps 753 mmHg 30%
    23:00 +24°C° 0 mm 10 mps 753 mmHg 33%
    Show more